Simultaneous Nadir Overpasses (SNOs) Predictions

Prediction of SNOs between METOP-A and NPP Satellite Orbit:

Table of predicted SNOs for the next 14.0 days since TLE Epoch: 11/13/2015
Index Date (METOP-A) Time (METOP-A) Lat,Lon (METOP-A) SZA (METOP-A ) Date (NPP) Time (NPP) Lat,Lon (NPP) SZA (NPP ) Distance(km) Time Diff (sec)
1 11/27/2015 09:47:31 73.61, 26.49 94.65 11/27/2015 09:46:23 73.62, 24.08 94.71 75.64 68
2 11/27/2015 10:38:15 -73.54,-166.35 85.42 11/27/2015 10:37:06 -73.54,-168.43 85.37 65.52 69
3 11/27/2015 11:28:59 73.30, 0.43 94.35 11/27/2015 11:27:47 73.32, -0.63 94.41 33.80 72
4 11/27/2015 12:19:42 -73.22, 167.59 85.71 11/27/2015 12:18:29 -73.25, 166.85 85.66 23.88 73
5 11/27/2015 13:10:24 73.08, -25.40 94.16 11/27/2015 13:09:11 73.08, -25.46 94.17 2.25 73
6 11/27/2015 14:01:07 -73.06, 141.88 85.86 11/27/2015 13:59:55 -73.06, 141.90 85.86 0.56 72
7 11/27/2015 14:51:46 73.06, -50.77 94.15 11/27/2015 14:50:40 73.03, -50.74 94.13 2.86 66
8 11/27/2015 15:42:29 -73.04, 116.50 85.87 11/27/2015 15:41:25 -73.06, 116.51 85.84 2.66 64
9 11/27/2015 16:33:08 73.04, -76.15 94.15 11/27/2015 16:32:10 73.04, -76.13 94.15 0.63 58
10 11/27/2015 17:23:51 -73.02, 91.13 85.87 11/27/2015 17:22:54 -73.02, 91.23 85.87 3.41 57
11 11/27/2015 18:14:30 73.02,-101.53 94.14 11/27/2015 18:13:40 73.05,-101.52 94.17 2.73 50
